This is the latest recevied weather packets stored in our database for station/object N0NPO. If no packets are shown the sender has not sent any weather packets the latest 10 day(s).
| Time | Temp. | Humidity | Pressure | Rain* | Wind** | Luminosity | Snow |
|---|---|---|---|---|---|---|---|
| 1777604069 | 4.44° C | 1% | 1023.2 hPa | 0 mm | - | 0 W/m² | - |
| 1777603767 | 4.44° C | 1% | 1023 hPa | 0 mm | - | 0 W/m² | - |
| 1777603462 | 5° C | 1% | 1023.2 hPa | 0 mm | - | 0 W/m² | - |
| 1777603158 | 5° C | 1% | 1022.9 hPa | 0 mm | - | 0 W/m² | - |
| 1777602854 | 5° C | 1% | 1022.9 hPa | 0 mm | - | 0 W/m² | - |
| 1777602549 | 5° C | 1% | 1022.9 hPa | 0 mm | - | 0 W/m² | - |
| 1777602245 | 5.56° C | 1% | 1022.8 hPa | 0 mm | - | 0 W/m² | - |
| 1777601941 | 5.56° C | 1% | 1022.8 hPa | 0 mm | - | 0 W/m² | - |
| 1777601635 | 5.56° C | 1% | 1022.9 hPa | 0 mm | - | 0 W/m² | - |
| 1777601331 | 6.11° C | 1% | 1022.8 hPa | 0 mm | - | 0 W/m² | - |
| 1777601028 | 6.67° C | 1% | 1022.6 hPa | 0 mm | - | 0 W/m² | - |
| 1777600724 | 6.67° C | 1% | 1022.4 hPa | 0 mm | - | 0 W/m² | - |
| 1777600421 | 6.67° C | 1% | 1022.6 hPa | 0 mm | - | 0 W/m² | - |
| 1777600116 | 7.22° C | 1% | 1022.4 hPa | 0 mm | - | 0 W/m² | - |
| 1777599812 | 7.22° C | 1% | 1022.3 hPa | 0 mm | - | 1 W/m² | - |
| 1777599508 | 7.78° C | 1% | 1022.4 hPa | 0 mm | - | 2 W/m² | - |
| 1777599205 | 7.78° C | 1% | 1022.3 hPa | 0 mm | - | 5 W/m² | - |
| 1777598901 | 8.33° C | 1% | 1022.3 hPa | 0 mm | - | 9 W/m² | - |
| 1777598599 | 8.33° C | 1% | 1022 hPa | 0 mm | - | 12 W/m² | - |
| 1777598295 | 8.89° C | 1% | 1022 hPa | 0 mm | - | 17 W/m² | - |
| 1777597993 | 8.89° C | 1% | 1021.8 hPa | 0 mm | - | 22 W/m² | - |
| 1777597691 | 9.44° C | 1% | 1021.7 hPa | 0 mm | - | 26 W/m² | - |
| 1777597388 | 9.44° C | 1% | 1021.6 hPa | 0 mm | - | 29 W/m² | - |
| 1777597083 | 10° C | 1% | 1021.7 hPa | 0 mm | - | 33 W/m² | - |
| 1777596780 | 10° C | 1% | 1021.7 hPa | 0 mm | - | 42 W/m² | - |
* Rain latest hour (hover to see other rain measurements)
** Current wind speed in m/s (hover to see current wind gust speed)